Torna al catalogo

NOAA 16 DEB

AttivoPO
NORAD 41403·DEBRIS·🇺🇸 United States

Lanciato Sep 21, 2000 da Vandenberg Space Force Base

Loading…

Prossimi Passaggi (prossime 24 ore)

TLE

AggiornatoSource: Space-Track

Epoca: Sep 13, 2026, 07:35 UTC

1 41403U 00055KG  26256.31650531  .00004891  00000-0  11667-2 0  9992
2 41403  98.9315  76.4310 0016894 214.9028 145.1060 14.54121454551845

Traccia NOAA 16 DEB in tempo reale con AllMySat

Download on the App Store